| time (UTC) | temp C | wind direction | speed KPH | gust KPH | rain 1hr cm | rain 24hr cm | rain mn cm | humidity % | barometer mb |
| 20260906223520 | 37 | 24 | 1.6 | 9.7 | 0.00 | 0.00 | 0.00 | 35 | 1012.0 |
| 20260906223049 | 37 | 108 | 3.2 | 9.7 | 0.00 | 0.00 | 0.00 | 36 | 1012.0 |
| 20260906222522 | 36 | 113 | 1.6 | 6.4 | 0.00 | 0.00 | 0.00 | 39 | 1012.1 |
| 20260906222019 | 35 | 51 | 0.0 | 3.2 | 0.00 | 0.00 | 0.00 | 39 | 1012.2 |
| 20260906221537 | 35 | 0 | 0.0 | 4.8 | 0.00 | 0.00 | 0.00 | 40 | 1012.2 |
| 20260906221020 | 35 | 46 | 0.0 | 4.8 | 0.00 | 0.00 | 0.00 | 38 | 1012.3 |
| 20260906220519 | 36 | 0 | 0.0 | 11.3 | 0.00 | 0.00 | 0.00 | 37 | 1012.3 |
| 20260906215517 | 38 | 140 | 3.2 | 16.1 | 0.00 | 0.00 | 0.00 | 34 | 1012.3 |
| 20260906215018 | 37 | 157 | 3.2 | 8.0 | 0.00 | 0.00 | 0.00 | 36 | 1012.3 |
| 20260906214539 | 38 | 138 | 3.2 | 9.7 | 0.00 | 0.00 | 0.00 | 34 | 1012.4 |
| 20260906214018 | 38 | 129 | 3.2 | 12.9 | 0.00 | 0.00 | 0.00 | 34 | 1012.5 |
| 20260906213520 | 38 | 57 | 1.6 | 12.9 | 0.00 | 0.00 | 0.00 | 33 | 1012.5 |
| 20260906213038 | 37 | 42 | 3.2 | 12.9 | 0.00 | 0.00 | 0.00 | 34 | 1012.6 |
| 20260906212526 | 38 | 89 | 3.2 | 12.9 | 0.00 | 0.00 | 0.00 | 35 | 1012.5 |
| 20260906212020 | 37 | 0 | 1.6 | 14.5 | 0.00 | 0.00 | 0.00 | 36 | 1012.6 |
| 20260906211538 | 37 | 137 | 3.2 | 14.5 | 0.00 | 0.00 | 0.00 | 36 | 1012.8 |
| 20260906211020 | 36 | 117 | 1.6 | 14.5 | 0.00 | 0.00 | 0.00 | 38 | 1012.9 |
| 20260906210524 | 36 | 0 | 0.0 | 22.5 | 0.00 | 0.00 | 0.00 | 38 | 1012.8 |
| 20260906210043 | 36 | 182 | 1.6 | 22.5 | 0.00 | 0.00 | 0.00 | 37 | 1012.9 |
| 20260906205518 | 37 | 0 | 1.6 | 14.5 | 0.00 | 0.00 | 0.00 | 35 | 1013.0 |
| 20260906205017 | 38 | 83 | 3.2 | 14.5 | 0.00 | 0.00 | 0.00 | 34 | 1013.1 |
| 20260906204539 | 38 | 56 | 1.6 | 12.9 | 0.00 | 0.00 | 0.00 | 34 | 1013.1 |
| 20260906204018 | 38 | 183 | 3.2 | 11.3 | 0.00 | 0.00 | 0.00 | 34 | 1013.0 |
| 20260906202520 | 38 | 144 | 3.2 | 16.1 | 0.00 | 0.00 | 0.00 | 35 | 1013.1 |
| 20260906202019 | 38 | 143 | 4.8 | 12.9 | 0.00 | 0.00 | 0.00 | 37 | 1013.3 |
| 20260906201556 | 37 | 87 | 1.6 | 12.9 | 0.00 | 0.00 | 0.00 | 37 | 1013.3 |
| 20260906201018 | 38 | 69 | 1.6 | 12.9 | 0.00 | 0.00 | 0.00 | 36 | 1013.4 |
| 20260906200524 | 38 | 0 | 3.2 | 16.1 | 0.00 | 0.00 | 0.00 | 36 | 1013.4 |
| 20260906200038 | 38 | 141 | 4.8 | 16.1 | 0.00 | 0.00 | 0.00 | 35 | 1013.6 |
| 20260906195518 | 38 | 69 | 8.0 | 16.1 | 0.00 | 0.00 | 0.00 | 34 | 1013.6 |
| 20260906195020 | 37 | 140 | 6.4 | 16.1 | 0.00 | 0.00 | 0.00 | 37 | 1013.6 |
| 20260906193518 | 37 | 176 | 6.4 | 27.4 | 0.00 | 0.00 | 0.00 | 36 | 1013.8 |
| 20260906193038 | 38 | 175 | 8.0 | 27.4 | 0.00 | 0.00 | 0.00 | 36 | 1013.8 |
| 20260906192519 | 37 | 172 | 3.2 | 9.7 | 0.00 | 0.00 | 0.00 | 38 | 1014.0 |
| 20260906192017 | 37 | 89 | 4.8 | 14.5 | 0.00 | 0.00 | 0.00 | 39 | 1013.9 |
| 20260906191539 | 37 | 148 | 6.4 | 14.5 | 0.00 | 0.00 | 0.00 | 39 | 1014.0 |
| 20260906191018 | 36 | 153 | 4.8 | 14.5 | 0.00 | 0.00 | 0.00 | 40 | 1014.2 |
| 20260906190518 | 37 | 277 | 4.8 | 11.3 | 0.00 | 0.00 | 0.00 | 39 | 1014.2 |
| 20260906190103 | 37 | 226 | 1.6 | 8.0 | 0.00 | 0.00 | 0.00 | 38 | 1014.3 |
| 20260906185518 | 36 | 0 | 1.6 | 12.9 | 0.00 | 0.00 | 0.00 | 41 | 1014.3 |
| 20260906183521 | 36 | 77 | 4.8 | 12.9 | 0.00 | 0.00 | 0.00 | 40 | 1014.5 |
| 20260906182519 | 35 | 0 | 0.0 | 17.7 | 0.00 | 0.00 | 0.00 | 42 | 1014.7 |
| 20260906182020 | 36 | 0 | 3.2 | 17.7 | 0.00 | 0.00 | 0.00 | 40 | 1014.8 |
| 20260906181541 | 36 | 134 | 3.2 | 14.5 | 0.00 | 0.00 | 0.00 | 40 | 1014.9 |
| 20260906181021 | 36 | 0 | 1.6 | 16.1 | 0.00 | 0.00 | 0.00 | 41 | 1014.8 |
| 20260906180520 | 36 | 134 | 4.8 | 16.1 | 0.00 | 0.00 | 0.00 | 41 | 1014.9 |
| 20260906180038 | 36 | 106 | 4.8 | 14.5 | 0.00 | 0.00 | 0.00 | 41 | 1015.0 |
| 20260906175520 | 36 | 76 | 1.6 | 14.5 | 0.00 | 0.00 | 0.00 | 42 | 1015.2 |
| 20260906175016 | 36 | 112 | 4.8 | 14.5 | 0.00 | 0.00 | 0.00 | 41 | 1015.2 |
| 20260906172018 | 35 | 355 | 1.6 | 11.3 | 0.00 | 0.00 | 0.00 | 44 | 1015.6 |
| 20260906171018 | 35 | 144 | 3.2 | 14.5 | 0.00 | 0.00 | 0.00 | 43 | 1015.7 |
| 20260906170520 | 35 | 0 | 3.2 | 14.5 | 0.00 | 0.00 | 0.00 | 42 | 1015.8 |
| 20260906170039 | 35 | 120 | 3.2 | 11.3 | 0.00 | 0.00 | 0.00 | 45 | 1015.9 |
| 20260906165520 | 34 | 57 | 1.6 | 11.3 | 0.00 | 0.00 | 0.00 | 46 | 1015.9 |
| 20260906165020 | 34 | 137 | 3.2 | 11.3 | 0.00 | 0.00 | 0.00 | 45 | 1016.1 |
| 20260906164540 | 33 | 140 | 3.2 | 9.7 | 0.00 | 0.00 | 0.00 | 47 | 1016.0 |
| 20260906164019 | 34 | 347 | 1.6 | 8.0 | 0.00 | 0.00 | 0.00 | 46 | 1016.1 |
| 20260906162020 | 33 | 131 | 4.8 | 12.9 | 0.00 | 0.00 | 0.00 | 47 | 1016.0 |
| 20260906161019 | 33 | 0 | 1.6 | 11.3 | 0.00 | 0.00 | 0.00 | 47 | 1016.0 |
| 20260906160520 | 33 | 93 | 1.6 | 11.3 | 0.00 | 0.00 | 0.00 | 49 | 1016.0 |
| 20260906160037 | 33 | 341 | 3.2 | 11.3 | 0.00 | 0.00 | 0.00 | 48 | 1016.1 |
| 20260906154538 | 32 | 334 | 1.6 | 6.4 | 0.00 | 0.00 | 0.00 | 52 | 1016.1 |
| 20260906153518 | 31 | 331 | 0.0 | 6.4 | 0.00 | 0.00 | 0.00 | 56 | 1016.0 |
| 20260906152521 | 31 | 227 | 1.6 | 6.4 | 0.00 | 0.00 | 0.00 | 57 | 1015.9 |
| 20260906152019 | 31 | 0 | 1.6 | 4.8 | 0.00 | 0.00 | 0.00 | 57 | 1016.0 |
| 20260906151539 | 30 | 290 | 0.0 | 8.0 | 0.00 | 0.00 | 0.00 | 59 | 1016.0 |
| 20260906151018 | 30 | 308 | 1.6 | 8.0 | 0.00 | 0.00 | 0.00 | 59 | 1016.0 |
| 20260906150518 | 30 | 292 | 0.0 | 6.4 | 0.00 | 0.00 | 0.00 | 60 | 1016.0 |
| 20260906150037 | 29 | 220 | 1.6 | 6.4 | 0.00 | 0.00 | 0.00 | 62 | 1016.0 |
| 20260906145521 | 29 | 240 | 1.6 | 6.4 | 0.00 | 0.00 | 0.00 | 62 | 1016.0 |
| 20260906142523 | 28 | 0 | 0.0 | 3.2 | 0.00 | 0.00 | 0.00 | 65 | 1015.9 |
| 20260906142019 | 28 | 145 | 0.0 | 3.2 | 0.00 | 0.00 | 0.00 | 67 | 1016.0 |
| 20260906141021 | 27 | 0 | 0.0 | 4.8 | 0.00 | 0.00 | 0.00 | 71 | 1016.0 |
| 20260906140521 | 27 | 0 | 0.0 | 4.8 | 0.00 | 0.00 | 0.00 | 71 | 1016.0 |
| 20260906140044 | 27 | 145 | 1.6 | 4.8 | 0.00 | 0.00 | 0.00 | 72 | 1016.0 |
| 20260906135518 | 26 | 0 | 0.0 | 6.4 | 0.00 | 0.00 | 0.00 | 73 | 1016.0 |
| 20260906135018 | 26 | 128 | 1.6 | 6.4 | 0.00 | 0.00 | 0.00 | 74 | 1016.0 |
| 20260906134017 | 26 | 0 | 0.0 | 4.8 | 0.00 | 0.00 | 0.00 | 76 | 1015.8 |
| 20260906132520 | 25 | 126 | 0.0 | 6.4 | 0.00 | 0.00 | 0.00 | 79 | 1015.8 |
| 20260906132019 | 24 | 144 | 0.0 | 4.8 | 0.00 | 0.00 | 0.00 | 80 | 1015.7 |
| 20260906131540 | 24 | 0 | 0.0 | 4.8 | 0.00 | 0.00 | 0.00 | 82 | 1015.7 |
| 20260906131020 | 23 | 0 | 0.0 | 4.8 | 0.00 | 0.00 | 0.00 | 82 | 1015.8 |
| 20260906130523 | 23 | 144 | 0.0 | 1.6 | 0.00 | 0.00 | 0.00 | 83 | 1015.8 |
| 20260906130046 | 23 | 0 | 0.0 | 1.6 | 0.00 | 0.00 | 0.00 | 84 | 1015.7 |
| 20260906125517 | 23 | 0 | 0.0 | 1.6 | 0.00 | 0.00 | 0.00 | 84 | 1015.5 |
| 20260906125020 | 23 | 144 | 0.0 | 1.6 | 0.00 | 0.00 | 0.00 | 84 | 1015.5 |
| 20260906124544 | 22 | 0 | 0.0 | 1.6 | 0.00 | 0.00 | 0.00 | 85 | 1015.5 |
| 20260906123042 | 22 | 0 | 0.0 | 0.0 | 0.00 | 0.00 | 0.00 | 85 | 1015.2 |
| 20260906122020 | 22 | 0 | 0.0 | 1.6 | 0.00 | 0.00 | 0.00 | 85 | 1015.1 |
| 20260906121539 | 22 | 0 | 0.0 | 1.6 | 0.00 | 0.00 | 0.00 | 84 | 1015.0 |
| 20260906120523 | 22 | 0 | 0.0 | 3.2 | 0.00 | 0.00 | 0.00 | 84 | 1014.8 |
| 20260906120045 | 22 | 0 | 0.0 | 3.2 | 0.00 | 0.00 | 0.00 | 85 | 1014.9 |
| 20260906114539 | 21 | 0 | 0.0 | 0.0 | 0.00 | 0.00 | 0.00 | 84 | 1014.6 |
| 20260906113042 | 22 | 0 | 0.0 | 0.0 | 0.00 | 0.00 | 0.00 | 84 | 1014.5 |
| 20260906112018 | 22 | 0 | 0.0 | 0.0 | 0.00 | 0.00 | 0.00 | 85 | 1014.4 |
| 20260906111551 | 22 | 0 | 0.0 | 0.0 | 0.00 | 0.00 | 0.00 | 84 | 1014.4 |
| 20260906111017 | 22 | 0 | 0.0 | 0.0 | 0.00 | 0.00 | 0.00 | 83 | 1014.4 |
| 20260906110520 | 22 | 0 | 0.0 | 0.0 | 0.00 | 0.00 | 0.00 | 83 | 1014.3 |
| 20260906110051 | 22 | 0 | 0.0 | 0.0 | 0.00 | 0.00 | 0.00 | 84 | 1014.3 |
| 20260906104540 | 22 | 0 | 0.0 | 0.0 | 0.00 | 0.00 | 0.00 | 83 | 1014.2 |
| 20260906103039 | 22 | 0 | 0.0 | 0.0 | 0.00 | 0.00 | 0.00 | 81 | 1014.1 |
| 20260906102520 | 22 | 0 | 0.0 | 0.0 | 0.00 | 0.00 | 0.00 | 80 | 1014.0 |
| 20260906101538 | 22 | 0 | 0.0 | 0.0 | 0.00 | 0.00 | 0.00 | 81 | 1014.1 |
| 20260906101017 | 22 | 0 | 0.0 | 0.0 | 0.00 | 0.00 | 0.00 | 81 | 1014.0 |
| 20260906100521 | 22 | 0 | 0.0 | 0.0 | 0.00 | 0.00 | 0.00 | 82 | 1014.0 |
| 20260906100036 | 22 | 0 | 0.0 | 0.0 | 0.00 | 0.00 | 0.00 | 81 | 1014.0 |
| 20260906095516 | 22 | 0 | 0.0 | 0.0 | 0.00 | 0.00 | 0.00 | 80 | 1014.0 |
| 20260906095018 | 23 | 0 | 0.0 | 0.0 | 0.00 | 0.00 | 0.00 | 79 | 1014.1 |
| 20260906094539 | 23 | 0 | 0.0 | 0.0 | 0.00 | 0.00 | 0.00 | 80 | 1014.1 |
| 20260906092517 | 23 | 0 | 0.0 | 0.0 | 0.00 | 0.00 | 0.00 | 79 | 1014.0 |
| 20260906092017 | 23 | 0 | 0.0 | 0.0 | 0.00 | 0.00 | 0.00 | 79 | 1013.9 |
| 20260906091538 | 23 | 0 | 0.0 | 0.0 | 0.00 | 0.00 | 0.00 | 79 | 1013.8 |
| 20260906091016 | 23 | 0 | 0.0 | 0.0 | 0.00 | 0.00 | 0.00 | 78 | 1013.7 |
| 20260906090515 | 23 | 0 | 0.0 | 0.0 | 0.00 | 0.00 | 0.00 | 78 | 1013.8 |
| 20260906085019 | 24 | 0 | 0.0 | 0.0 | 0.00 | 0.00 | 0.00 | 76 | 1013.8 |
| 20260906084018 | 24 | 0 | 0.0 | 0.0 | 0.00 | 0.00 | 0.00 | 76 | 1013.8 |
| 20260906083517 | 24 | 0 | 0.0 | 0.0 | 0.00 | 0.00 | 0.00 | 76 | 1013.9 |
| 20260906083042 | 24 | 0 | 0.0 | 0.0 | 0.00 | 0.00 | 0.00 | 76 | 1014.0 |
| 20260906082516 | 24 | 0 | 0.0 | 0.0 | 0.00 | 0.00 | 0.00 | 76 | 1013.8 |
| 20260906082017 | 24 | 0 | 0.0 | 0.0 | 0.00 | 0.00 | 0.00 | 76 | 1013.9 |
| 20260906081537 | 24 | 0 | 0.0 | 0.0 | 0.00 | 0.00 | 0.00 | 74 | 1013.9 |
| 20260906081020 | 25 | 0 | 0.0 | 0.0 | 0.00 | 0.00 | 0.00 | 74 | 1013.9 |
| 20260906075519 | 25 | 0 | 0.0 | 0.0 | 0.00 | 0.00 | 0.00 | 73 | 1013.7 |
| 20260906075018 | 25 | 0 | 0.0 | 3.2 | 0.00 | 0.00 | 0.00 | 72 | 1013.7 |
| 20260906074021 | 25 | 0 | 0.0 | 6.4 | 0.00 | 0.00 | 0.00 | 72 | 1013.9 |
| 20260906073518 | 25 | 0 | 0.0 | 6.4 | 0.00 | 0.00 | 0.00 | 72 | 1013.9 |
| 20260906073038 | 25 | 142 | 0.0 | 4.8 | 0.00 | 0.00 | 0.00 | 71 | 1013.9 |
| 20260906072518 | 26 | 147 | 1.6 | 6.4 | 0.00 | 0.00 | 0.00 | 71 | 1013.9 |
| 20260906072017 | 26 | 161 | 3.2 | 8.0 | 0.00 | 0.00 | 0.00 | 70 | 1014.0 |
| 20260906071537 | 26 | 161 | 1.6 | 8.0 | 0.00 | 0.00 | 0.00 | 70 | 1014.0 |
| 20260906071016 | 26 | 152 | 3.2 | 9.7 | 0.00 | 0.00 | 0.00 | 70 | 1014.1 |
| 20260906070041 | 26 | 0 | 1.6 | 8.0 | 0.00 | 0.00 | 0.00 | 69 | 1014.1 |
| 20260906065524 | 26 | 161 | 1.6 | 8.0 | 0.00 | 0.00 | 0.00 | 68 | 1014.2 |
| 20260906065021 | 26 | 155 | 3.2 | 8.0 | 0.00 | 0.00 | 0.00 | 68 | 1014.3 |
| 20260906064536 | 26 | 170 | 3.2 | 9.7 | 0.00 | 0.00 | 0.00 | 68 | 1014.3 |
| 20260906063040 | 26 | 159 | 1.6 | 6.4 | 0.00 | 0.00 | 0.00 | 67 | 1014.4 |
| 20260906061547 | 26 | 166 | 1.6 | 8.0 | 0.00 | 0.00 | 0.00 | 67 | 1014.9 |
| 20260906061020 | 26 | 156 | 1.6 | 8.0 | 0.00 | 0.00 | 0.00 | 67 | 1014.9 |
| 20260906060518 | 26 | 150 | 1.6 | 6.4 | 0.00 | 0.00 | 0.00 | 67 | 1014.8 |
| 20260906060042 | 26 | 0 | 0.0 | 4.8 | 0.00 | 0.00 | 0.00 | 66 | 1014.7 |
| 20260906055517 | 26 | 0 | 0.0 | 4.8 | 0.00 | 0.00 | 0.00 | 66 | 1014.7 |
| 20260906054544 | 27 | 0 | 0.0 | 4.8 | 0.00 | 0.00 | 0.00 | 65 | 1014.6 |
| 20260906053042 | 27 | 173 | 1.6 | 11.3 | 0.00 | 0.00 | 0.00 | 65 | 1014.5 |
| 20260906051540 | 27 | 171 | 1.6 | 6.4 | 0.00 | 0.00 | 0.00 | 65 | 1014.7 |
| 20260906051018 | 27 | 167 | 1.6 | 6.4 | 0.00 | 0.00 | 0.00 | 65 | 1014.6 |
| 20260906050519 | 27 | 130 | 1.6 | 9.7 | 0.00 | 0.00 | 0.00 | 65 | 1014.6 |
| 20260906050044 | 27 | 159 | 1.6 | 9.7 | 0.00 | 0.00 | 0.00 | 65 | 1014.7 |
| 20260906044540 | 27 | 148 | 1.6 | 8.0 | 0.00 | 0.00 | 0.00 | 64 | 1014.7 |
| 20260906043038 | 28 | 149 | 1.6 | 6.4 | 0.00 | 0.00 | 0.00 | 63 | 1014.8 |
| 20260906042520 | 28 | 159 | 1.6 | 8.0 | 0.00 | 0.00 | 0.00 | 63 | 1014.6 |
| 20260906042020 | 28 | 171 | 1.6 | 8.0 | 0.00 | 0.00 | 0.00 | 63 | 1014.6 |
| 20260906041548 | 28 | 158 | 1.6 | 8.0 | 0.00 | 0.00 | 0.00 | 63 | 1014.7 |
| 20260906041021 | 28 | 164 | 1.6 | 8.0 | 0.00 | 0.00 | 0.00 | 63 | 1014.6 |
| 20260906040042 | 28 | 126 | 1.6 | 6.4 | 0.00 | 0.00 | 0.00 | 62 | 1014.4 |
| 20260906034544 | 28 | 114 | 3.2 | 11.3 | 0.00 | 0.00 | 0.00 | 62 | 1014.4 |
| 20260906034023 | 28 | 156 | 3.2 | 11.3 | 0.00 | 0.00 | 0.00 | 61 | 1014.2 |
| 20260906033517 | 28 | 120 | 3.2 | 11.3 | 0.00 | 0.00 | 0.00 | 61 | 1014.3 |
| 20260906033036 | 28 | 115 | 4.8 | 11.3 | 0.00 | 0.00 | 0.00 | 61 | 1014.3 |
| 20260906032519 | 28 | 142 | 3.2 | 14.5 | 0.00 | 0.00 | 0.00 | 60 | 1014.3 |
| 20260906032020 | 29 | 127 | 4.8 | 16.1 | 0.00 | 0.00 | 0.00 | 60 | 1014.2 |
| 20260906031540 | 29 | 146 | 6.4 | 16.1 | 0.00 | 0.00 | 0.00 | 60 | 1014.1 |
| 20260906031016 | 29 | 119 | 4.8 | 16.1 | 0.00 | 0.00 | 0.00 | 59 | 1014.1 |
| 20260906030048 | 29 | 120 | 6.4 | 16.1 | 0.00 | 0.00 | 0.00 | 58 | 1014.0 |
| 20260906024537 | 30 | 158 | 4.8 | 19.3 | 0.00 | 0.00 | 0.00 | 56 | 1013.8 |
| 20260906024020 | 30 | 130 | 4.8 | 14.5 | 0.00 | 0.00 | 0.00 | 55 | 1013.7 |
| 20260906023520 | 30 | 117 | 6.4 | 16.1 | 0.00 | 0.00 | 0.00 | 54 | 1013.7 |
| 20260906023038 | 30 | 153 | 6.4 | 16.1 | 0.00 | 0.00 | 0.00 | 53 | 1013.6 |
| 20260906022517 | 30 | 144 | 6.4 | 12.9 | 0.00 | 0.00 | 0.00 | 52 | 1013.5 |
| 20260906022017 | 30 | 130 | 4.8 | 11.3 | 0.00 | 0.00 | 0.00 | 53 | 1013.4 |
| 20260906021539 | 28 | 100 | 1.6 | 9.7 | 0.00 | 0.00 | 0.00 | 53 | 1013.4 |
| 20260906021020 | 28 | 121 | 0.0 | 3.2 | 0.00 | 0.00 | 0.00 | 53 | 1013.3 |
| 20260906020042 | 29 | 0 | 0.0 | 4.8 | 0.00 | 0.00 | 0.00 | 52 | 1013.2 |
| 20260906014545 | 29 | 0 | 0.0 | 1.6 | 0.00 | 0.00 | 0.00 | 51 | 1013.0 |
| 20260906014020 | 30 | 0 | 0.0 | 1.6 | 0.00 | 0.00 | 0.00 | 51 | 1012.9 |
| 20260906013526 | 30 | 0 | 0.0 | 1.6 | 0.00 | 0.00 | 0.00 | 51 | 1012.8 |
| 20260906013036 | 30 | 0 | 0.0 | 3.2 | 0.00 | 0.00 | 0.00 | 50 | 1012.8 |
| 20260906011552 | 30 | 0 | 0.0 | 4.8 | 0.00 | 0.00 | 0.00 | 49 | 1012.7 |
| 20260906010524 | 30 | 0 | 0.0 | 1.6 | 0.00 | 0.00 | 0.00 | 48 | 1012.7 |
| 20260906010100 | 31 | 0 | 0.0 | 1.6 | 0.00 | 0.00 | 0.00 | 48 | 1012.7 |
| 20260906005517 | 31 | 0 | 0.0 | 1.6 | 0.00 | 0.00 | 0.00 | 47 | 1012.7 |
| 20260906005021 | 31 | 0 | 0.0 | 8.0 | 0.00 | 0.00 | 0.00 | 46 | 1012.6 |
| 20260906004545 | 32 | 0 | 0.0 | 8.0 | 0.00 | 0.00 | 0.00 | 45 | 1012.5 |
| 20260906003045 | 33 | 71 | 0.0 | 9.7 | 0.00 | 0.00 | 0.00 | 42 | 1012.4 |
| 20260906002018 | 33 | 126 | 3.2 | 12.9 | 0.00 | 0.00 | 0.00 | 41 | 1012.4 |
| 20260906001558 | 33 | 119 | 4.8 | 12.9 | 0.00 | 0.00 | 0.00 | 41 | 1012.3 |
| 20260906001022 | 33 | 101 | 1.6 | 12.9 | 0.00 | 0.00 | 0.00 | 40 | 1012.2 |
| 20260906000520 | 34 | 130 | 4.8 | 12.9 | 0.00 | 0.00 | 0.00 | 40 | 1012.1 |
| 20260906000039 | 34 | 101 | 4.8 | 12.9 | 0.00 | 0.00 | 0.00 | 39 | 1012.1 |
| 20260905235519 | 34 | 154 | 3.2 | 16.1 | 0.00 | 0.00 | 0.00 | 39 | 1012.3 |
| 20260905235022 | 35 | 117 | 3.2 | 16.1 | 0.00 | 0.00 | 0.00 | 39 | 1012.2 |
| 20260905234541 | 35 | 140 | 4.8 | 16.1 | 0.00 | 0.00 | 0.00 | 38 | 1012.2 |
| 20260905232522 | 36 | 114 | 3.2 | 14.5 | 0.00 | 0.00 | 0.00 | 36 | 1012.1 |
| 20260905231544 | 36 | 92 | 1.6 | 11.3 | 0.00 | 0.00 | 0.00 | 35 | 1012.0 |
| 20260905231020 | 36 | 130 | 4.8 | 11.3 | 0.00 | 0.00 | 0.00 | 35 | 1012.0 |
| 20260905230517 | 36 | 0 | 3.2 | 11.3 | 0.00 | 0.00 | 0.00 | 35 | 1012.1 |
| 20260905230044 | 36 | 139 | 1.6 | 9.7 | 0.00 | 0.00 | 0.00 | 35 | 1012.1 |
| 20260905224543 | 36 | 133 | 3.2 | 12.9 | 0.00 | 0.00 | 0.00 | 35 | 1012.1 |
| 20260905224021 | 36 | 140 | 4.8 | 12.9 | 0.00 | 0.00 | 0.00 | 34 | 1012.1 |